TimeAKST,TemperatureF,Dew PointF,Humidity,Sea Level PressureIn,VisibilityMPH,Wind Direction,Wind SpeedMPH,Gust SpeedMPH,PrecipitationIn,Events,Conditions,WindDirDegrees,DateUTC
12:16 AM,21.2,10.4,63,29.98,10.0,WSW,15.0,18.4,N/A,,Mostly Cloudy,250,2013-01-17 09:16:00
12:36 AM,21.2,10.4,63,29.99,10.0,West,15.0,20.7,N/A,,Overcast,280,2013-01-17 09:36:00
12:56 AM,21.2,12.2,68,30.00,10.0,West,10.4,24.2,N/A,,Overcast,280,2013-01-17 09:56:00
1:16 AM,21.2,12.2,68,29.99,10.0,West,15.0,25.3,N/A,,Overcast,260,2013-01-17 10:16:00
1:36 AM,21.2,12.2,68,29.99,10.0,West,13.8,20.7,N/A,,Overcast,280,2013-01-17 10:36:00
1:56 AM,21.2,10.4,63,29.99,10.0,West,13.8,24.2,N/A,,Overcast,260,2013-01-17 10:56:00
2:16 AM,21.2,12.2,68,29.99,10.0,West,10.4,20.7,N/A,,Mostly Cloudy,260,2013-01-17 11:16:00
2:36 AM,21.2,10.4,63,29.98,10.0,WNW,13.8,20.7,N/A,,Mostly Cloudy,290,2013-01-17 11:36:00
2:56 AM,21.2,10.4,63,29.98,10.0,West,12.7,20.7,N/A,,Partly Cloudy,280,2013-01-17 11:56:00
3:16 AM,21.2,10.4,63,29.98,10.0,West,11.5,19.6,N/A,,Partly Cloudy,270,2013-01-17 12:16:00
3:36 AM,21.2,10.4,63,29.97,10.0,WSW,10.4,-,N/A,,Scattered Clouds,250,2013-01-17 12:36:00
3:56 AM,21.2,10.4,63,29.98,10.0,WSW,10.4,20.7,N/A,,Scattered Clouds,250,2013-01-17 12:56:00
4:16 AM,21.2,10.4,63,29.98,10.0,West,11.5,17.3,N/A,,Mostly Cloudy,260,2013-01-17 13:16:00
4:36 AM,21.2,10.4,63,29.98,10.0,West,11.5,-,N/A,,Mostly Cloudy,260,2013-01-17 13:36:00
4:56 AM,21.2,10.4,63,29.98,10.0,West,12.7,19.6,N/A,,Mostly Cloudy,270,2013-01-17 13:56:00
5:16 AM,21.2,10.4,63,29.98,10.0,West,10.4,19.6,N/A,,Partly Cloudy,270,2013-01-17 14:16:00
5:36 AM,21.2,12.2,68,29.98,10.0,West,11.5,17.3,N/A,,Clear,270,2013-01-17 14:36:00
5:56 AM,19.4,10.4,68,29.98,10.0,West,9.2,-,N/A,,Partly Cloudy,260,2013-01-17 14:56:00
6:16 AM,19.4,10.4,68,29.98,10.0,West,12.7,19.6,N/A,,Partly Cloudy,270,2013-01-17 15:16:00
6:36 AM,19.4,10.4,68,29.98,10.0,West,12.7,-,N/A,,Partly Cloudy,280,2013-01-17 15:36:00
6:56 AM,19.4,10.4,68,29.98,10.0,West,11.5,19.6,N/A,,Clear,280,2013-01-17 15:56:00
7:16 AM,19.4,10.4,68,29.99,10.0,WNW,10.4,-,N/A,,Scattered Clouds,290,2013-01-17 16:16:00
7:36 AM,19.4,8.6,63,29.98,10.0,West,10.4,-,N/A,,Mostly Cloudy,280,2013-01-17 16:36:00
7:56 AM,19.4,8.6,63,29.99,10.0,WNW,11.5,16.1,N/A,,Mostly Cloudy,290,2013-01-17 16:56:00
8:16 AM,19.4,8.6,63,29.99,10.0,West,11.5,-,N/A,,Mostly Cloudy,280,2013-01-17 17:16:00
8:36 AM,19.4,8.6,63,29.99,10.0,West,10.4,-,N/A,,Scattered Clouds,270,2013-01-17 17:36:00
8:56 AM,19.4,10.4,68,30.00,10.0,West,10.4,-,N/A,,Partly Cloudy,270,2013-01-17 17:56:00
9:16 AM,19.4,8.6,63,30.00,10.0,West,11.5,-,N/A,,Partly Cloudy,270,2013-01-17 18:16:00
9:36 AM,19.4,10.4,68,30.01,10.0,West,10.4,-,N/A,,Scattered Clouds,280,2013-01-17 18:36:00
9:56 AM,19.4,10.4,68,30.00,10.0,West,11.5,-,N/A,,Partly Cloudy,260,2013-01-17 18:56:00
10:16 AM,19.4,8.6,63,30.00,10.0,West,13.8,18.4,N/A,,Partly Cloudy,280,2013-01-17 19:16:00
10:36 AM,17.6,8.6,68,30.00,10.0,West,12.7,-,N/A,,Clear,280,2013-01-17 19:36:00
10:56 AM,17.6,8.6,68,30.01,10.0,WSW,11.5,-,N/A,,Partly Cloudy,240,2013-01-17 19:56:00
11:16 AM,19.4,8.6,63,30.01,10.0,West,10.4,-,N/A,,Scattered Clouds,280,2013-01-17 20:16:00
11:36 AM,19.4,10.4,68,30.01,10.0,WSW,16.1,25.3,N/A,,Scattered Clouds,240,2013-01-17 20:36:00
11:56 AM,19.4,10.4,68,30.02,10.0,West,11.5,21.9,N/A,,Clear,270,2013-01-17 20:56:00
12:16 PM,19.4,10.4,68,30.01,10.0,WSW,17.3,24.2,N/A,,Clear,250,2013-01-17 21:16:00
12:36 PM,19.4,8.6,63,30.01,10.0,WSW,18.4,-,N/A,,Clear,250,2013-01-17 21:36:00
12:56 PM,19.4,8.6,63,30.01,10.0,West,11.5,-,N/A,,Clear,260,2013-01-17 21:56:00
1:16 PM,19.4,8.6,63,30.00,10.0,West,9.2,-,N/A,,Clear,260,2013-01-17 22:16:00
1:36 PM,19.4,8.6,63,30.01,10.0,WSW,8.1,23.0,N/A,,Clear,250,2013-01-17 22:36:00
1:56 PM,19.4,10.4,68,30.01,10.0,West,9.2,-,N/A,,Clear,280,2013-01-17 22:56:00
2:16 PM,19.4,10.4,68,30.00,10.0,WSW,13.8,-,N/A,,Clear,240,2013-01-17 23:16:00
2:36 PM,19.4,8.6,63,30.00,10.0,WSW,12.7,17.3,N/A,,Clear,250,2013-01-17 23:36:00
2:56 PM,19.4,8.6,63,29.99,10.0,SW,10.4,-,N/A,,Clear,230,2013-01-17 23:56:00
3:16 PM,19.4,10.4,68,29.98,10.0,WSW,11.5,-,N/A,,Clear,250,2013-01-18 00:16:00
3:36 PM,19.4,10.4,68,29.98,10.0,WSW,12.7,-,N/A,,Clear,250,2013-01-18 00:36:00
3:56 PM,19.4,8.6,63,29.98,10.0,WSW,4.6,-,N/A,,Clear,240,2013-01-18 00:56:00
4:16 PM,19.4,8.6,63,29.98,10.0,WNW,6.9,-,N/A,,Clear,300,2013-01-18 01:16:00
4:36 PM,17.6,6.8,63,29.97,10.0,Calm,Calm,-,N/A,,Clear,0,2013-01-18 01:36:00
4:56 PM,17.6,8.6,68,29.98,10.0,ENE,3.5,-,N/A,,Clear,70,2013-01-18 01:56:00
5:16 PM,17.6,8.6,68,29.98,10.0,NE,3.5,-,N/A,,Clear,50,2013-01-18 02:16:00
5:36 PM,17.6,10.4,73,29.97,10.0,Calm,Calm,-,N/A,,Clear,0,2013-01-18 02:36:00
5:56 PM,17.6,8.6,68,29.97,10.0,SW,3.5,-,N/A,,Clear,220,2013-01-18 02:56:00
6:16 PM,17.6,8.6,68,29.97,10.0,Calm,Calm,-,N/A,,Clear,0,2013-01-18 03:16:00
6:36 PM,17.6,8.6,68,29.97,10.0,Calm,Calm,-,N/A,,Clear,0,2013-01-18 03:36:00
6:56 PM,17.6,8.6,68,29.97,10.0,Calm,Calm,-,N/A,,Scattered Clouds,0,2013-01-18 03:56:00
7:16 PM,17.6,10.4,73,29.96,10.0,Calm,Calm,-,N/A,,Overcast,0,2013-01-18 04:16:00
7:36 PM,17.6,10.4,73,29.97,10.0,Calm,Calm,-,N/A,,Overcast,0,2013-01-18 04:36:00
7:56 PM,19.4,10.4,68,29.97,10.0,Calm,Calm,-,N/A,,Overcast,0,2013-01-18 04:56:00
8:16 PM,19.4,8.6,63,29.97,10.0,Calm,Calm,-,N/A,,Mostly Cloudy,0,2013-01-18 05:16:00
8:36 PM,17.6,8.6,68,29.98,10.0,East,4.6,-,N/A,,Scattered Clouds,90,2013-01-18 05:36:00
8:56 PM,19.4,8.6,63,29.98,10.0,Calm,Calm,-,N/A,,Mostly Cloudy,0,2013-01-18 05:56:00
9:16 PM,19.4,10.4,68,29.98,10.0,North,4.6,-,N/A,,Overcast,10,2013-01-18 06:16:00
9:36 PM,19.4,10.4,68,29.98,10.0,Calm,Calm,-,N/A,,Overcast,0,2013-01-18 06:36:00
9:56 PM,19.4,12.2,74,29.98,10.0,Calm,Calm,-,N/A,,Overcast,0,2013-01-18 06:56:00
10:16 PM,21.2,12.2,68,29.98,10.0,NE,3.5,-,N/A,,Overcast,50,2013-01-18 07:16:00
10:36 PM,21.2,12.2,68,29.98,10.0,ESE,5.8,-,N/A,,Overcast,110,2013-01-18 07:36:00
10:56 PM,21.2,10.4,63,29.99,10.0,Calm,Calm,-,N/A,,Overcast,0,2013-01-18 07:56:00
11:16 PM,21.2,12.2,68,29.99,10.0,South,4.6,-,N/A,,Overcast,190,2013-01-18 08:16:00
11:36 PM,21.2,12.2,68,29.99,10.0,Calm,Calm,-,N/A,,Overcast,0,2013-01-18 08:36:00
11:56 PM,21.2,12.2,68,29.98,10.0,Calm,Calm,-,N/A,,Overcast,0,2013-01-18 08:56:00